CAPE
0 0 0 0 0 0 0 0 0 0 0 0 0 0 0 0 0 0 0 0 0 0 0 0 0 0 0 0 0 0 0 0 0 0 0 0 0 0 0 0 0 0 0 0
2 0 0 0 0 0 0 0 0 0 0 0 0 0 0 0 0 0 0 0 0 0 0 0 0 0 0 0 0 0 0 0 0 0 0 0 0 0 0 0 0 0 0 0
7 0 0 0 0 0 0 0 0 0 0 0 0 0 0 0 0 0 0 0 0 0 0 0 0 0 0 0 0 0 0 0 0 0 0 0 0 0 0 0 0 0 0 0
0 0 0 0 0 0 0 0 0 0 0 0 0 0 0 0 0 0 0 0 0 0 0 0 0 0 0 0 0 0 0 0 0 0 0 0 0 0 0 0 0 0 0 0
0 1 0 0 0 0 0 0 0 0 0 0 0 0 0 0 0 0 0 0 0 0 0 0 0 0 0 0 0 0 0 0 0 0 0 0 0 0 0 0 0 0 0 0
0 0 0 0 0 0 0 0 0 0 0 0 0 0 0 0 0 0 0 0 0 0 0 0 0 0 0 0 0 0 0 0 0 0 0 0 0 0 0 0 0 0 0 0
0 0 0 0 0 0 0 0 0 0 0 0 0 0 0 0 0 0 0 0 0 0 0 0 0 0 0 0 0 0 0 0 0 0 0 0 0 0 0 0 0 0 0 0
0 0 0 0 0 0 0 0 0 0 0 0 0 0 0 0 0 0 0 0 0 0 0 0 0 0 0 0 0 0 0 0 0 0 0 0 0 0 0 0 0 0 0 0
0 0 0 0 0 0 0 0 0 0 0 0 0 0 0 0 0 0 0 0 0 0 0 0 0 0 0 0 0 0 0 0 0 0 0 0 0 0 0 0 0 0 0 0
0 0 0 0 0 0 0 0 0 0 0 0 0 0 0 0 0 0 0 0 0 0 0 0 0 0 0 0 0 0 0 0 0 0 0 0 0 0 0 0 0 0 0 0
0 0 0 0 0 0 0 0 0 0 0 0 0 0 0 0 0 0 0 0 0 0 0 0 0 0 0 0 0 0 0 0 0 0 0 0 0 0 0 0 0 0 0 0
0 0 0 0 0 0 0 0 0 0 0 0 0 0 0 0 0 0 0 0 0 0 0 0 0 0 0 0 0 0 0 0 0 0 0 0 0 0 0 0 0 0 0 0
0 0 0 0 0 0 0 0 0 0 0 0 0 0 0 0 0 0 0 0 0 0 0 0 0 0 0 0 0 0 0 0 0 0 0 0 0 0 0 0 0 0 0 0
0 0 0 0 0 0 0 0 0 0 0 0 0 0 0 0 0 0 0 0 0 0 0 0 0 0 0 0 0 0 0 0 0 0 0 0 0 0 0 0 0 0 0 0
0 0 0 0 0 0 0 0 0 0 0 0 0 0 0 0 0 0 0 0 0 0 0 0 0 0 0 0 0 0 0 0 0 0 0 0 0 0 0 0 0 0 0 0
0 0 0 0 0 0 0 0 0 0 0 0 0 0 0 0 0 0 0 0 0 0 0 0 0 0 0 0 0 0 0 0 0 0 0 0 0 0 0 0 0 0 0 0
0 0 0 0 0 0 0 0 0 0 0 0 0 0 0 0 0 0 0 0 0 0 0 0 0 0 0 0 0 0 0 0 0 0 0 0 0 0 0 0 0 0 0 0
0 0 0 0 0 0 0 0 0 0 0 0 0 0 0 0 0 0 0 0 0 0 0 0 0 0 0 0 0 0 0 0 0 0 0 0 0 0 0 0 0 0 0 0
0 0 0 0 0 0 0 0 0 0 0 0 0 0 0 0 0 0 0 0 0 0 0 0 0 0 0 0 0 0 0 0 0 0 0 0 0 0 0 0 0 0 0 0
0 0 0 0 0 0 0 0 0 0 0 0 0 0 0 0 0 0 0 0 0 0 0 0 0 0 0 0 0 0 0 0 0 0 0 0 0 0 0 0 0 0 0 0
0 0 0 0 0 0 0 0 0 0 0 0 0 0 0 0 0 0 0 0 0 0 0 0 0 0 0 0 0 0 0 0 0 0 0 0 0 0 0 0 0 0 0 0
0 0 0 0 0 0 0 0 0 0 0 0 0 0 0 0 0 0 0 0 0 0 0 0 0 0 0 0 0 0 0 0 0 0 0 0 0 0 0 0 1 0 0 0
0 0 0 0 0 0 0 0 0 0 0 0 0 0 0 0 0 0 0 0 0 0 0 0 0 0 0 0 0 0 0 0 0 0 0 0 0 0 0 0 0 0 0 0
0 0 0 0 0 0 0 0 0 0 0 0 0 0 0 0 0 0 0 0 0 0 0 0 0 0 0 0 0 0 0 0 0 0 0 0 0 0 0 0 0 0 0 0
0 0 0 0 0 0 0 0 0 0 0 0 0 0 0 0 0 0 0 0 0 0 0 0 0 0 0 0 0 0 0 0 0 0 0 0 0 0 0 0 0 0 0 0
0 0 0 0 0 0 0 0 0 0 0 0 0 0 0 0 0 0 0 0 0 0 0 0 0 0 0 0 0 0 0 0 0 0 0 0 0 0 0 0 0 0 1 0
0 0 0 0 0 0 0 0 0 0 0 0 0 0 0 0 0 0 0 0 0 0 0 0 0 0 0 0 0 0 0 0 0 1 1 0 0 0 0 0 1 1 0 0
CIN
-1 0 0 0 0 0 0 0 0 0 0 0 0 0 0 0 0 0 0 0 0 0 0 0 0 0 0 0 0 0 0 0 0 0 0 0 0 0 0 0 0 0 0 0
-1 0 0 0 0 0 0 0 0 0 0 0 0 0 0 0 0 0 0 0 0 0 0 0 0 0 0 0 0 0 0 0 0 0 0 0 0 0 0 0 0 0 0 0
-2 0 0 0 0 0 0 0 0 0 0 0 0 0 0 0 0 0 0 0 0 0 0 0 0 0 0 0 0 0 0 0 0 0 0 0 0 0 0 0 0 0 0 0
0 0 -0 0 0 0 0 0 0 0 0 0 0 0 0 0 0 0 0 0 0 0 0 0 0 0 0 0 0 0 0 0 0 0 0 0 0 0 0 0 0 0 0 0
-0 -1 0 0 0 0 0 0 0 0 0 0 0 0 0 0 0 0 0 0 0 0 0 0 0 0 0 0 0 0 0 0 0 0 0 0 0 0 0 0 0 0 0 0
0 0 0 0 0 0 0 0 0 0 0 0 0 0 0 0 0 0 0 0 0 0 0 0 0 0 0 0 0 0 0 0 0 0 0 0 0 0 0 0 0 0 0 0
0 0 0 0 0 0 0 0 0 0 0 0 0 0 0 0 0 0 0 0 0 0 0 0 0 0 0 0 0 0 0 0 0 0 0 0 0 0 0 0 0 0 0 0
0 0 0 0 0 0 0 0 0 0 0 0 0 0 0 0 0 0 0 0 0 0 0 0 0 0 0 0 0 0 0 0 0 0 0 0 0 0 0 0 0 0 0 0
0 0 0 0 0 0 0 0 0 0 0 0 0 0 0 0 0 0 0 0 0 0 0 0 0 0 0 0 0 0 0 0 0 0 0 0 0 0 0 0 0 0 0 0
0 0 0 0 0 0 0 0 0 0 0 0 0 0 0 0 0 0 0 0 0 0 0 0 0 0 0 0 0 0 0 0 0 0 0 0 0 0 0 0 0 0 0 0
0 0 0 0 0 0 0 0 0 0 0 0 0 0 0 0 0 0 0 0 0 0 0 0 0 0 0 0 0 0 0 0 0 0 0 0 0 0 0 0 0 0 0 0
0 0 0 0 0 0 0 0 0 0 0 0 0 0 0 0 0 0 0 0 0 0 0 0 0 0 0 0 0 0 0 0 0 0 0 0 0 0 0 0 0 0 0 0
0 0 0 0 0 0 0 0 0 0 0 0 0 0 0 0 0 0 0 0 0 0 0 0 0 0 0 0 0 0 0 0 0 0 0 0 0 0 0 0 0 0 0 0
0 0 0 0 0 0 0 0 0 0 0 0 0 0 0 0 0 0 0 0 0 0 0 0 0 0 0 0 0 0 0 0 0 0 0 0 0 0 0 0 0 0 0 0
0 0 0 0 0 0 0 0 0 0 0 0 0 0 0 0 0 0 0 0 0 0 0 0 0 0 0 0 0 0 0 0 0 0 0 0 0 0 0 0 0 0 0 0
0 0 0 0 0 0 0 0 0 0 0 0 0 0 0 0 0 0 0 0 0 0 0 0 0 0 0 0 0 0 0 0 0 0 0 0 0 0 0 0 0 0 0 0
0 0 0 0 0 0 0 0 0 0 0 0 0 0 0 0 0 0 0 0 0 0 0 0 0 0 0 0 0 0 0 0 0 0 0 0 0 0 0 0 0 0 0 0
0 0 0 0 0 0 0 0 0 0 0 0 0 0 0 0 0 0 0 0 0 0 0 0 0 0 0 0 0 0 0 0 0 0 0 0 0 0 0 0 0 0 0 0
0 0 0 0 0 0 0 0 0 0 0 0 0 0 0 0 0 0 0 0 0 0 0 0 0 0 0 0 0 0 0 0 0 0 0 0 0 0 0 0 0 0 0 0
0 0 0 0 0 0 0 0 0 0 0 0 0 0 0 0 0 0 0 0 0 0 0 0 0 0 0 0 0 0 0 0 0 0 0 0 0 0 0 0 0 0 0 0
0 0 0 0 0 0 0 0 0 0 0 0 0 0 0 0 0 0 0 0 0 0 0 0 0 0 0 0 0 0 0 0 0 0 0 0 0 0 0 0 0 -1 0 0
0 0 0 0 0 0 0 0 0 0 0 0 0 0 0 0 0 0 0 0 0 0 0 0 0 0 0 0 0 0 0 0 0 0 0 0 0 0 0 -0 -1 -1 -0 -2
0 0 0 0 0 0 0 0 0 0 0 0 0 0 0 0 0 0 0 0 0 0 0 0 0 0 0 0 0 0 0 0 0 0 0 0 0 0 -2 -2 -2 0 0 0
0 0 0 0 0 0 0 0 0 0 0 0 0 0 0 0 0 0 0 0 0 0 0 0 0 0 0 0 0 0 0 0 0 0 0 0 0 -0 -0 -0 0 -2 -2 -3
0 0 0 0 0 0 0 0 0 0 0 0 0 0 0 0 0 0 0 0 0 0 0 0 0 0 0 0 0 0 0 0 0 0 0 0 0 0 -1 -2 0 0 -1 0
0 0 0 0 0 0 0 0 0 0 0 0 0 0 0 0 0 0 0 0 0 0 0 0 0 0 0 0 0 0 0 0 0 0 -0 -1 -1 -1 -1 0 -1 -1 -1 -0
0 0 0 0 0 0 0 0 0 0 0 0 0 0 0 0 0 0 0 0 0 0 0 0 0 0 0 0 0 0 0 0 0 -0 -1 -0 -1 -1 -0 -0 -0 -0 -0 -0
Wind_Speed
19 18 25 31 31 32 37 38 31 28 30 21 18 18 15 11 6 5 5 6 7 8 7 8 10 11 12 13 14 17 20 23 25 27 29 30 32 33 34 34 35 36 38 39
23 24 25 31 33 33 39 40 38 35 31 22 20 15 14 12 9 8 8 9 10 8 8 9 11 12 13 13 15 17 20 23 25 27 30 32 33 34 35 36 37 38 39 41
23 21 24 34 37 32 34 41 35 37 34 28 20 19 17 14 11 12 12 11 10 9 10 11 11 12 13 14 16 18 21 23 26 28 31 33 34 35 36 37 38 39 41 42
21 19 28 24 21 29 28 32 28 29 26 25 19 17 15 15 14 13 12 11 10 10 11 11 11 12 13 14 16 19 21 24 27 30 33 34 34 34 36 37 39 41 42 43
22 24 27 26 23 21 21 31 34 34 26 20 15 12 16 15 12 11 11 11 12 11 10 11 12 12 12 14 17 20 24 26 28 31 33 33 34 35 36 38 40 42 42 44
22 23 22 18 18 17 16 28 22 20 21 14 11 18 18 10 11 11 12 13 12 11 11 12 11 11 13 16 19 23 25 27 30 31 31 32 33 35 37 39 41 42 44 44
27 27 28 18 14 11 17 19 16 13 8 6 8 16 6 8 11 12 13 13 12 12 12 11 12 13 16 19 22 24 26 28 29 29 30 31 34 36 39 40 42 44 45 45
25 30 31 11 12 17 15 13 12 9 6 5 7 8 8 9 11 12 13 13 13 13 13 13 14 15 18 21 23 25 27 28 29 29 31 33 36 38 39 41 43 45 46 45
21 20 16 11 17 17 14 12 11 8 8 6 7 8 9 11 12 12 12 13 13 13 14 15 16 18 20 22 24 26 27 28 28 30 32 34 38 40 42 41 44 45 46 45
25 23 20 17 17 14 10 10 9 7 7 8 8 10 11 12 13 13 13 13 14 14 15 17 18 19 21 23 24 25 26 28 30 33 36 36 37 39 41 43 44 44 44 44
25 22 18 17 15 10 9 7 7 9 10 10 10 12 13 14 15 15 15 15 15 16 17 18 18 20 21 22 22 24 27 30 33 35 38 39 38 40 41 40 40 42 42 42
24 16 20 14 7 4 3 5 6 8 10 13 13 14 15 16 17 17 17 16 16 17 18 18 19 20 20 20 22 25 29 32 35 37 38 38 40 41 38 39 39 39 39 39
19 10 17 6 3 4 4 6 8 10 12 13 15 16 17 18 19 19 18 18 18 18 17 17 18 18 18 20 23 26 31 34 35 36 37 39 40 42 46 42 40 40 39 39
9 8 10 5 7 4 4 7 9 11 13 14 15 16 17 18 19 20 19 18 17 16 16 16 16 18 19 21 24 27 31 33 35 36 38 39 40 42 42 44 45 43 40 40
9 17 10 5 2 4 5 6 9 11 13 14 15 17 18 19 19 20 19 17 16 16 16 16 18 20 20 23 26 29 31 34 35 37 38 39 40 41 41 41 42 42 42 41
10 10 6 4 3 3 5 7 9 10 12 14 16 18 19 20 20 19 17 15 15 16 16 18 20 20 22 25 26 30 32 34 35 37 39 40 40 40 40 41 41 41 40 39
6 8 5 2 2 3 6 8 9 11 13 16 18 19 20 20 19 18 16 15 15 18 17 19 21 22 24 25 29 32 34 35 36 37 39 39 39 39 40 40 39 38 37 35
10 6 3 0 0 2 4 7 10 13 15 17 18 19 19 18 18 17 16 16 17 18 18 19 21 23 25 27 30 33 34 35 37 38 38 38 38 38 37 37 37 36 36 35
5 2 1 1 2 3 5 8 11 14 16 17 18 18 17 17 17 17 16 16 17 19 20 20 22 25 28 28 32 33 35 37 37 38 38 38 38 37 36 36 36 35 34 33
1 1 3 3 4 5 7 11 13 15 17 17 17 18 18 18 17 17 16 17 19 21 21 22 24 27 29 31 33 35 35 36 38 38 37 37 36 36 36 35 34 33 32 29
3 3 2 3 5 8 10 12 14 16 16 17 18 19 19 18 17 16 18 20 21 21 22 24 27 29 31 33 35 36 36 37 37 37 36 36 35 35 35 33 32 31 27 16
2 2 2 4 6 9 12 14 15 16 17 18 19 19 18 18 18 19 21 22 22 23 25 27 28 30 33 35 35 36 36 36 35 35 34 34 34 34 33 31 30 26 11 12
2 2 4 6 8 10 12 15 17 18 19 19 19 18 19 20 20 21 23 23 23 25 27 28 30 33 35 36 35 35 35 34 34 33 33 33 33 31 29 28 24 13 20 22
2 4 6 8 9 11 15 17 18 19 19 19 20 20 20 21 22 22 23 24 26 28 29 30 32 34 36 35 35 35 34 33 33 33 32 32 29 29 27 23 10 15 20 26
4 6 8 10 12 15 16 17 18 18 19 19 20 21 21 23 24 24 25 26 28 29 30 31 33 34 34 34 34 34 33 33 32 32 31 29 29 27 22 11 18 23 25 26
8 10 12 14 16 16 16 17 18 18 18 19 20 21 22 23 24 25 26 27 28 30 31 32 33 34 35 34 34 34 33 33 32 30 29 28 26 23 17 24 23 25 26 23
11 12 13 15 17 17 17 17 17 18 19 20 21 22 23 24 25 27 27 28 29 30 32 33 34 34 34 34 34 33 32 31 29 29 29 27 24 22 12 24 24 25 24 22
Wind_Direction
251 253 235 234 238 240 241 238 252 256 261 270 284 290 298 309 303 288 266 259 268 279 291 303 312 319 324 329 333 336 336 338 340 342 343 343 342 342 341 340 339 338 337 336
255 254 249 243 243 245 243 245 252 257 262 283 288 295 301 300 292 282 280 282 281 285 297 305 311 317 322 328 332 336 337 339 341 342 342 341 341 341 340 339 338 337 336 335
258 261 259 253 249 253 253 245 257 258 264 275 285 291 298 301 295 290 292 293 292 295 303 309 315 320 324 329 335 337 338 340 341 341 341 341 340 340 339 338 338 336 336 335
261 263 257 269 277 259 259 263 266 268 272 280 283 295 301 302 300 302 305 308 312 313 315 320 325 327 330 335 338 338 339 340 340 340 340 340 340 340 339 339 338 337 336 336
259 260 267 270 273 269 259 264 259 259 269 279 286 295 302 310 315 316 319 325 325 327 327 329 328 330 338 339 339 339 338 338 339 340 340 341 341 340 340 339 338 337 337 336
255 261 262 280 285 281 274 271 277 271 271 267 271 286 293 306 315 322 328 329 331 336 336 333 338 345 340 338 338 337 338 338 339 340 341 341 342 341 340 339 338 338 337 337
247 247 252 287 297 298 274 284 305 297 285 269 277 300 310 315 319 328 332 337 342 343 340 346 345 343 339 338 337 338 339 339 340 342 342 343 342 341 341 340 339 338 337 338
257 253 251 304 294 277 297 314 321 325 322 311 317 328 330 329 327 328 330 336 340 344 345 345 344 341 338 337 339 339 339 340 342 343 343 343 342 342 342 340 339 339 338 338
257 270 289 295 288 292 303 313 317 323 325 335 338 328 327 330 335 337 341 343 344 342 342 342 342 340 337 338 339 340 341 342 343 344 344 344 343 342 341 342 341 340 339 339
253 270 281 288 295 305 317 317 327 337 340 333 334 334 335 339 339 338 341 340 340 339 337 337 338 339 339 340 342 343 343 344 344 343 343 344 343 342 341 342 341 341 340 340
266 274 289 290 291 302 315 325 336 334 335 337 342 336 334 333 334 335 336 337 336 335 335 336 338 339 342 343 346 345 344 344 343 343 342 342 343 343 342 342 341 340 340 340
268 280 280 291 299 322 350 356 355 354 345 338 338 335 334 333 333 333 332 336 336 335 336 338 340 342 345 348 348 346 343 343 342 342 343 343 343 342 343 342 342 341 340 339
283 298 289 317 325 323 328 338 341 339 338 336 336 336 334 332 332 333 333 333 333 335 340 342 344 347 350 350 349 346 343 342 343 343 343 343 343 342 341 343 343 343 343 342
305 312 310 315 302 329 338 339 339 338 337 336 336 339 339 338 338 335 336 339 341 343 345 348 349 349 351 351 349 346 344 342 342 343 343 343 343 342 342 342 342 343 345 344
298 297 312 325 338 328 337 341 334 332 334 337 340 340 341 339 339 338 342 344 346 348 349 350 348 347 352 350 347 345 343 343 343 343 343 343 343 343 343 343 343 344 344 346
301 312 321 304 301 313 324 329 329 332 335 338 339 340 340 340 340 341 346 349 348 346 347 347 346 350 350 348 346 344 344 343 343 343 343 343 343 343 344 344 344 345 346 348
292 299 305 293 270 297 316 328 332 337 338 337 338 340 341 341 343 345 348 352 350 347 350 348 348 349 347 347 344 344 343 343 343 342 342 343 343 343 344 344 345 347 348 350
296 309 299 249 267 331 339 340 340 338 337 338 341 341 341 344 345 347 348 349 348 348 349 349 348 347 346 345 344 343 342 342 342 342 342 343 343 343 344 345 347 347 349 351
293 308 333 357 355 355 352 346 342 342 342 342 343 344 347 347 347 349 351 350 348 345 345 348 347 346 344 345 343 343 342 341 341 342 342 343 343 345 345 347 347 349 350 353
4 64 83 54 24 5 349 345 345 343 345 347 348 347 347 348 350 351 352 348 346 345 347 347 346 344 344 343 343 342 341 341 341 341 343 343 344 345 346 347 348 350 352 355
120 107 71 32 0 350 347 346 344 344 346 348 347 346 346 350 354 353 348 343 346 348 348 347 345 344 343 342 341 340 340 340 341 342 342 344 344 346 346 348 350 351 355 354
118 86 27 2 350 345 344 345 347 347 346 345 345 347 350 351 350 347 346 344 347 349 346 345 344 343 341 340 340 340 340 341 342 342 343 344 345 346 348 350 351 355 330 301
77 30 357 346 344 346 348 345 343 343 342 343 345 346 346 346 346 345 343 348 348 347 344 343 343 341 340 340 340 340 341 342 342 343 343 344 345 347 349 351 354 294 284 285
18 355 347 347 348 344 338 338 341 341 343 345 346 347 347 346 347 350 350 348 346 345 343 342 341 340 340 340 341 341 342 342 343 343 343 344 347 348 350 353 304 281 280 286
352 346 342 340 335 334 338 339 340 342 345 346 348 349 350 349 347 347 347 346 345 344 342 342 341 341 342 341 341 342 342 342 342 343 344 346 347 348 351 340 275 278 281 283
337 332 333 331 332 334 336 338 339 342 343 343 346 347 348 349 349 347 346 345 344 344 343 343 342 342 341 342 342 342 342 342 343 345 345 345 346 349 350 276 274 275 279 274
337 337 335 334 335 338 339 340 340 340 342 343 343 346 346 347 346 345 345 345 344 343 343 342 342 342 342 342 343 343 343 344 345 344 344 345 347 348 291 272 270 273 271 266